TimeMST,TemperatureF,Dew PointF,Humidity,Sea Level PressureIn,VisibilityMPH,Wind Direction,Wind SpeedMPH,Gust SpeedMPH,PrecipitationIn,Events,Conditions,WindDirDegrees,DateUTC
12:51 AM,3.0,-2.9,76,30.68,9.0,Calm,Calm,-,N/A,,Clear,0,2014-01-06 07:51:00
1:51 AM,3.0,-2.0,80,30.66,10.0,Calm,Calm,-,N/A,,Clear,0,2014-01-06 08:51:00
2:51 AM,1.9,-2.9,80,30.66,9.0,Calm,Calm,-,N/A,,Clear,0,2014-01-06 09:51:00
3:51 AM,1.9,-2.9,80,30.64,10.0,Calm,Calm,-,N/A,,Clear,0,2014-01-06 10:51:00
4:51 AM,1.9,-2.9,80,30.64,10.0,Calm,Calm,-,N/A,,Clear,0,2014-01-06 11:51:00
5:51 AM,-0.0,-5.1,79,30.66,10.0,Calm,Calm,-,N/A,,Clear,0,2014-01-06 12:51:00
6:51 AM,1.0,-4.0,79,30.67,10.0,Calm,Calm,-,N/A,,Clear,0,2014-01-06 13:51:00
7:51 AM,-0.9,-6.0,79,30.68,3.0,Calm,Calm,-,N/A,,Haze,0,2014-01-06 14:51:00
7:57 AM,-0.9,-6.0,79,30.40,2.0,Calm,Calm,-,N/A,,Haze,0,2014-01-06 14:57:00
8:06 AM,-0.0,-6.0,76,30.40,10.0,Calm,Calm,-,N/A,,Clear,0,2014-01-06 15:06:00
8:51 AM,-0.0,-4.0,83,30.69,7.0,Calm,Calm,-,N/A,,Clear,0,2014-01-06 15:51:00
9:51 AM,3.9,-0.9,80,30.69,10.0,Calm,Calm,-,N/A,,Clear,0,2014-01-06 16:51:00
10:51 AM,9.0,3.9,80,30.67,10.0,South,3.5,-,N/A,,Clear,190,2014-01-06 17:51:00
11:51 AM,14.0,3.9,64,30.62,10.0,Calm,Calm,-,N/A,,Clear,0,2014-01-06 18:51:00
12:51 PM,18.0,3.0,52,30.57,10.0,Calm,Calm,-,N/A,,Clear,0,2014-01-06 19:51:00
1:51 PM,19.9,6.1,55,30.53,10.0,South,4.6,-,N/A,,Clear,180,2014-01-06 20:51:00
2:51 PM,19.9,7.0,57,30.51,10.0,South,3.5,-,N/A,,Clear,170,2014-01-06 21:51:00
3:51 PM,21.9,3.9,46,30.48,10.0,Calm,Calm,-,N/A,,Clear,0,2014-01-06 22:51:00
4:51 PM,21.9,5.0,48,30.47,10.0,Calm,Calm,-,N/A,,Clear,0,2014-01-06 23:51:00
5:51 PM,21.0,6.1,53,30.46,10.0,Calm,Calm,-,N/A,,Clear,0,2014-01-07 00:51:00
6:51 PM,17.1,6.1,62,30.46,10.0,Calm,Calm,-,N/A,,Clear,0,2014-01-07 01:51:00
7:51 PM,15.1,6.1,68,30.46,10.0,NE,4.6,-,N/A,,Clear,50,2014-01-07 02:51:00
8:51 PM,12.9,5.0,71,30.45,10.0,Calm,Calm,-,N/A,,Clear,0,2014-01-07 03:51:00
9:51 PM,12.0,5.0,73,30.43,7.0,Calm,Calm,-,N/A,,Clear,0,2014-01-07 04:51:00
10:51 PM,12.0,6.1,77,30.40,8.0,Calm,Calm,-,N/A,,Clear,0,2014-01-07 05:51:00
11:51 PM,14.0,8.1,77,30.35,8.0,Calm,Calm,-,N/A,,Clear,0,2014-01-07 06:51:00